FW9285 Weather Reports


Display with metric or nautical units.
time (UTC)temp
F
wind
direction
speed
MPH
gust
MPH
rain 1hr
in
rain 24hr
in
rain mn
in
humidity
%
barometer
mb
20260904151712 88 158 2.0 8.0 0.00 0.00 0.00 59 1013.4
20260904145711 87 178 3.0 6.0 0.00 0.00 0.00 61 1013.3
20260904144711 85 179 4.0 6.0 0.00 0.00 0.00 62 1013.3
20260904143711 84 213 2.0 5.0 0.00 0.00 0.00 65 1013.3
20260904142711 84 192 2.0 4.0 0.00 0.00 0.00 65 1013.1
20260904141711 84 233 0.0 3.0 0.00 0.00 0.00 66 1013.1
20260904140712 83 198 0.0 3.0 0.00 0.00 0.00 66 1012.9
20260904135712 83 251 0.0 3.0 0.00 0.00 0.00 67 1012.9
20260904134711 82 209 0.0 2.0 0.00 0.00 0.00 68 1012.8
20260904133711 82 174 1.0 2.0 0.00 0.00 0.00 70 1012.6
20260904132711 81 232 0.0 2.0 0.00 0.00 0.00 71 1012.7
20260904130712 81 226 1.0 2.0 0.00 0.00 0.00 71 1012.2
20260904125711 81 205 2.0 3.0 0.00 0.00 0.00 70 1012.2
20260904124711 81 218 2.0 2.0 0.00 0.00 0.00 70 1012.0
20260904121712 82 212 1.0 3.0 0.00 0.00 0.00 68 1011.7
20260904120713 82 165 1.0 2.0 0.00 0.00 0.00 68 1011.6
20260904115711 82 196 0.0 2.0 0.00 0.00 0.00 68 1011.7
20260904113711 83 194 1.0 3.0 0.00 0.00 0.00 67 1011.6
20260904111711 83 190 3.0 4.0 0.00 0.00 0.00 66 1011.3
20260904105717 83 153 2.0 3.0 0.00 0.00 0.00 67 1011.7
20260904104711 83 209 2.0 3.0 0.00 0.00 0.00 67 1011.5
20260904103711 83 210 1.0 3.0 0.00 0.00 0.00 67 1011.3
20260904102711 83 211 0.0 2.0 0.00 0.00 0.00 67 1011.5
20260904101712 83 187 2.0 2.0 0.00 0.00 0.00 67 1011.0
20260904100711 83 228 1.0 2.0 0.00 0.00 0.00 67 1010.8
20260904095711 83 223 2.0 3.0 0.00 0.00 0.00 66 1011.2
20260904094712 83 191 1.0 3.0 0.00 0.00 0.00 65 1010.9
20260904093711 83 222 0.0 2.0 0.00 0.00 0.00 65 1011.0
20260904092711 83 179 0.0 2.0 0.00 0.00 0.00 64 1010.9
20260904091711 83 221 1.0 2.0 0.00 0.00 0.00 64 1010.8
20260904090711 83 222 1.0 2.0 0.00 0.00 0.00 64 1010.9
20260904085711 83 203 1.0 2.0 0.00 0.00 0.00 65 1010.8
20260904083712 83 228 0.0 2.0 0.00 0.00 0.00 66 1010.9
20260904082711 83 157 0.0 2.0 0.00 0.00 0.00 67 1011.1
20260904081712 83 228 1.0 2.0 0.00 0.00 0.00 66 1010.9
20260904075710 83 240 2.0 2.0 0.00 0.00 0.00 66 1011.0
20260904074711 83 217 0.0 4.0 0.00 0.00 0.00 65 1011.0
20260904073710 84 183 2.0 4.0 0.00 0.00 0.00 64 1011.0
20260904072717 84 213 2.0 3.0 0.00 0.00 0.00 64 1011.1
20260904070712 84 196 1.0 3.0 0.00 0.00 0.00 63 1010.9
20260904065711 84 203 1.0 4.0 0.00 0.00 0.00 63 1011.0
20260904064711 84 175 2.0 4.0 0.00 0.00 0.00 62 1010.9
20260904063712 85 180 2.0 5.0 0.00 0.00 0.00 62 1010.6
20260904062712 85 198 3.0 6.0 0.00 0.00 0.00 62 1010.7
20260904061710 85 170 3.0 6.0 0.00 0.00 0.00 61 1010.7
20260904060711 85 183 4.0 6.0 0.00 0.00 0.00 61 1010.6
20260904055710 86 188 4.0 6.0 0.00 0.00 0.00 59 1010.5
20260904054712 86 169 4.0 6.0 0.00 0.00 0.00 57 1010.4
20260904053711 86 184 2.0 5.0 0.00 0.00 0.00 57 1010.5
20260904052711 86 192 2.0 6.0 0.00 0.00 0.00 58 1010.3
20260904051712 86 178 4.0 8.0 0.00 0.00 0.00 58 1010.4
20260904050712 86 189 3.0 8.0 0.00 0.00 0.00 59 1010.1
20260904044711 86 171 5.0 9.0 0.00 0.00 0.00 57 1010.2
20260904043711 87 176 3.0 8.0 0.00 0.00 0.00 56 1010.2
20260904042711 87 167 3.0 9.0 0.00 0.00 0.00 55 1010.1
20260904041711 87 167 3.0 8.0 0.00 0.00 0.00 55 1010.1
20260904040711 87 188 6.0 10.0 0.00 0.00 0.00 54 1009.9
20260904034711 87 176 3.0 8.0 0.00 0.00 0.00 53 1010.0
20260904033711 87 180 2.0 6.0 0.00 0.00 0.00 54 1009.9
20260904032711 88 189 4.0 7.0 0.00 0.00 0.00 52 1009.8
20260904031715 88 170 4.0 6.0 0.00 0.00 0.00 50 1009.7
20260904025711 89 182 1.0 4.0 0.00 0.00 0.00 50 1009.4
20260904024711 89 246 2.0 4.0 0.00 0.00 0.00 50 1009.3
20260904023712 89 211 1.0 3.0 0.00 0.00 0.00 48 1009.0
20260904020717 89 227 2.0 4.0 0.00 0.00 0.00 45 1008.4
20260904015711 88 192 2.0 6.0 0.00 0.00 0.00 47 1008.5
20260904014711 86 234 4.0 13.0 0.00 0.00 0.00 54 1008.9
20260904013711 83 255 6.0 14.0 0.00 0.00 0.00 64 1009.4
20260904012712 85 254 7.0 21.0 0.00 0.00 0.00 61 1009.6
20260904011711 87 290 6.0 20.0 0.00 0.00 0.00 55 1009.6
20260904010711 91 299 1.0 9.0 0.00 0.00 0.00 47 1009.0
20260904005711 96 185 1.0 4.0 0.00 0.00 0.00 37 1008.6
20260904004715 96 157 1.0 3.0 0.00 0.00 0.00 37 1008.6
20260904003711 96 164 1.0 4.0 0.00 0.00 0.00 37 1008.3
20260904002710 97 156 2.0 3.0 0.00 0.00 0.00 37 1008.6
20260904001714 97 165 2.0 3.0 0.00 0.00 0.00 36 1008.3
20260904000711 97 62 0.0 6.0 0.00 0.00 0.00 36 1008.5
20260903234711 99 176 2.0 6.0 0.00 0.00 0.00 35 1008.6
20260903232711 100 153 3.0 6.0 0.00 0.00 0.00 34 1008.9
20260903231711 102 137 3.0 3.0 0.00 0.00 0.00 33 1008.7
20260903225712 101 123 2.0 9.0 0.00 0.00 0.00 33 1008.9
20260903224711 101 226 2.0 6.0 0.00 0.00 0.00 34 1009.2
20260903223711 100 67 2.0 7.0 0.00 0.00 0.00 35 1009.3
20260903222717 101 137 3.0 4.0 0.00 0.00 0.00 34 1009.4
20260903221711 100 67 2.0 9.0 0.00 0.00 0.00 35 1009.5
20260903220712 101 124 4.0 7.0 0.00 0.00 0.00 35 1009.8
20260903215711 100 159 4.0 6.0 0.00 0.00 0.00 35 1009.7
20260903214711 99 4 3.0 9.0 0.00 0.00 0.00 34 1009.7
20260903213711 101 214 3.0 5.0 0.00 0.00 0.00 34 1010.1
20260903212712 99 168 3.0 6.0 0.00 0.00 0.00 35 1010.3
20260903211711 100 178 3.0 6.0 0.00 0.00 0.00 34 1010.4
20260903210713 100 191 2.0 6.0 0.00 0.00 0.00 32 1010.5
20260903205711 98 305 3.0 10.0 0.00 0.00 0.00 34 1010.7
20260903204711 100 150 5.0 7.0 0.00 0.00 0.00 34 1010.6
20260903203717 98 224 2.0 8.0 0.00 0.00 0.00 38 1010.9
20260903202711 99 128 2.0 6.0 0.00 0.00 0.00 38 1011.2
20260903201711 97 155 3.0 11.0 0.00 0.00 0.00 39 1011.5
20260903200712 97 150 2.0 6.0 0.00 0.00 0.00 39 1011.5
20260903195711 98 216 1.0 8.0 0.00 0.00 0.00 38 1011.7
20260903194712 98 154 3.0 9.0 0.00 0.00 0.00 40 1011.8
20260903192712 97 150 6.0 7.0 0.00 0.00 0.00 39 1012.0
20260903191712 96 142 5.0 6.0 0.00 0.00 0.00 41 1012.2
20260903190712 94 201 0.0 8.0 0.00 0.00 0.00 43 1012.5
20260903185711 95 139 5.0 9.0 0.00 0.00 0.00 43 1012.6
20260903184711 96 224 4.0 6.0 0.00 0.00 0.00 42 1012.6
20260903183711 96 154 3.0 6.0 0.00 0.00 0.00 43 1012.8
20260903182711 96 152 3.0 6.0 0.00 0.00 0.00 43 1012.9
20260903181711 94 218 2.0 9.0 0.00 0.00 0.00 44 1013.4
20260903180711 93 210 0.0 7.0 0.00 0.00 0.00 45 1013.5
20260903175711 93 174 2.0 8.0 0.00 0.00 0.00 46 1013.3
20260903174711 93 269 0.0 6.0 0.00 0.00 0.00 45 1013.6
20260903173711 94 148 3.0 6.0 0.00 0.00 0.00 45 1013.8
20260903172711 92 184 2.0 8.0 0.00 0.00 0.00 48 1013.9
20260903171710 95 200 2.0 8.0 0.00 0.00 0.00 45 1013.6
20260903170712 93 154 4.0 6.0 0.00 0.00 0.00 46 1013.8
20260903164711 91 131 4.0 5.0 0.00 0.00 0.00 50 1013.9
20260903163711 91 147 0.0 7.0 0.00 0.00 0.00 50 1013.9
20260903162710 89 166 2.0 4.0 0.00 0.00 0.00 53 1013.9
20260903160713 86 165 2.0 6.0 0.00 0.00 0.00 59 1013.8
20260903155711 86 161 3.0 6.0 0.00 0.00 0.00 59 1014.0
20260903154711 87 156 2.0 6.0 0.00 0.00 0.00 57 1014.1
20260903153711 86 159 2.0 7.0 0.00 0.00 0.00 60 1014.3
20260903152711 86 188 2.0 4.0 0.00 0.00 0.00 60 1013.9